User: anonymous   Login
Location: NJAA Observatory
(40.6819°N, 74.8979°W)
Time: 08:35:08
(UTC-04:00)
Language:

Cosmos 220 Rocket - Orbit

View from above orbital plane
View from above orbital plane
View from above satellite
View from above satellite

Ground track
Ground track

The orbit data is extracted from the following two-line orbital elements,

1 03230U 68040B   18113.72017695  .00000211  00000-0  25585-4 0  9990
2 03230  74.0364 341.6307 0031147 212.5667 147.3594 14.90322019681776
Epoch (UTC): 23 April 2018 17:17:03
Eccentricity: 0.0031147
inclination: 74.0364°
perigee height: 575 km
apogee height: 618 km
right ascension of ascending node: 341.6307°
argument of perigee: 212.5667°
revolutions per day: 14.90322019
mean anomaly at epoch: 147.3594°
orbit number at epoch: 68177

The dashed part of the orbit path shows where the satellite is in the earth's shadow,  

DLR